Date String (YYYY-MM-DD hh:mm:ss) UTC,Instrument flags,Ambient pressure (hPa),Sample flow (lpm),Bypass flow (lpm),Sample temperature (°C),Ambient temperature (°C),ASC tube jacket temperature (°C),LED temperature (°C),Box temperature (°C),Sample RH (%),Span deviation,Mass concentration (μg/m³),Mass concentration (μg/m³),Mass concentration (μg/m³)
DateTimeUTC,F1_M11,P_M11,Q1_M11,Q2_M11,T1_M11,T2_M11,T3_M11,T4_M11,T5_M11,U1_M11,ZSPAN_M11,X2_M11,X0_M11,X1_M11
2022-09-12 07:00:00,,0830.2,5.01,0.00,29.1,27.7,00.0,37.9,30.9,12.0,0001.0,0006.14,0008.43,0005.93
2022-09-12 07:01:00,,0830.1,4.99,0.00,29.1,27.7,00.0,37.9,30.9,12.1,0000.8,0006.12,0008.42,0005.91
2022-09-12 07:02:00,,0830.1,5.01,0.00,29.1,27.6,00.0,37.9,30.9,11.8,0001.0,0006.12,0008.57,0005.91
2022-09-12 07:03:00,,0830.1,5.00,0.00,29.1,27.6,00.0,37.9,30.9,11.7,0000.7,0006.12,0008.60,0005.90
2022-09-12 07:04:00,,0830.1,4.98,0.00,29.1,27.6,00.0,37.9,30.9,11.6,0000.8,0006.14,0009.00,0005.91
2022-09-12 07:05:00,,0830.2,5.00,0.00,29.1,27.6,00.0,37.9,30.8,11.7,0000.6,0006.16,0009.28,0005.91
2022-09-12 07:06:00,,0830.1,5.01,0.00,29.1,27.6,00.0,37.9,30.8,12.3,0000.2,0006.18,0009.30,0005.93
2022-09-12 07:07:00,,0830.1,5.00,0.00,29.1,27.6,00.0,37.9,30.9,12.6,0000.0,0006.22,0009.36,0005.96
2022-09-12 07:08:00,,0830.1,5.00,0.00,29.1,27.6,00.0,37.9,30.9,12.6,0000.7,0006.28,0009.44,0005.99
2022-09-12 07:09:00,,0830.1,4.99,0.00,29.1,27.6,00.0,37.9,30.9,12.6,0001.5,0006.32,0009.50,0006.01
2022-09-12 07:10:00,,0830.1,5.01,0.00,29.1,27.7,00.0,37.9,30.9,12.9,0001.1,0006.38,0009.58,0006.06
2022-09-12 07:11:00,,0830.1,5.01,0.00,29.1,27.7,00.0,37.9,30.9,13.1,0001.6,0006.43,0009.65,0006.11
2022-09-12 07:12:00,,0830.1,5.01,0.00,29.1,27.6,00.0,37.9,30.9,13.5,0002.1,0006.50,0009.75,0006.17
2022-09-12 07:13:00,,0830.1,5.00,0.00,29.1,27.6,00.0,37.9,30.9,13.5,0002.0,0006.53,0009.55,0006.21
2022-09-12 07:14:00,,0830.1,4.98,0.00,29.1,27.6,00.0,37.9,30.9,13.1,0002.1,0006.59,0009.62,0006.26
2022-09-12 07:15:00,,0830.0,4.99,0.00,29.1,27.6,00.0,37.9,30.8,13.3,0002.1,0006.62,0009.31,0006.30
2022-09-12 07:16:00,,0830.1,5.00,0.00,29.1,27.6,00.0,37.9,30.8,12.9,0002.5,0006.68,0009.13,0006.38
2022-09-12 07:17:00,,0830.1,5.00,0.00,29.1,27.6,00.0,37.9,30.9,12.0,0002.5,0006.70,0009.18,0006.39
2022-09-12 07:18:00,,0830.1,5.01,0.00,29.1,27.5,00.0,37.9,30.9,12.3,0002.6,0006.67,0009.14,0006.37
2022-09-12 07:19:00,,0830.1,5.01,0.00,29.1,27.6,00.0,37.9,30.9,12.4,0002.8,0006.65,0009.07,0006.37
2022-09-12 07:20:00,,0830.1,4.99,0.00,29.1,27.5,00.0,37.9,30.8,13.1,0002.9,0006.68,0009.09,0006.40
2022-09-12 07:21:00,,0830.1,5.01,0.00,29.1,27.5,00.0,37.9,30.8,13.3,0002.9,0006.73,0009.14,0006.43
2022-09-12 07:22:00,,0830.1,5.01,0.00,29.1,27.5,00.0,37.9,30.8,13.8,0002.8,0006.76,0009.13,0006.47
2022-09-12 07:23:00,,0830.1,5.00,0.00,29.1,27.6,00.0,37.9,30.9,14.0,0002.9,0006.80,0009.20,0006.54
2022-09-12 07:24:00,,0830.1,4.99,0.00,29.1,27.6,00.0,37.9,30.9,14.3,0002.9,0006.90,0009.31,0006.62
2022-09-12 07:25:00,,0830.0,5.00,0.00,29.1,27.5,00.0,37.9,30.9,14.5,0002.6,0006.95,0009.31,0006.70
2022-09-12 07:26:00,,0830.0,5.00,0.00,29.1,27.6,00.0,37.9,30.9,14.4,0002.4,0007.00,0009.30,0006.76
2022-09-12 07:27:00,,0830.0,5.00,0.00,29.1,27.6,00.0,37.9,30.9,14.4,0001.7,0007.07,0009.45,0006.81
2022-09-12 07:28:00,,0830.0,5.00,0.00,29.1,27.6,00.0,37.9,30.9,14.5,0001.9,0007.15,0009.51,0006.91
2022-09-12 07:29:00,,0830.0,5.00,0.00,29.1,27.5,00.0,37.9,30.9,14.6,0001.9,0007.27,0009.64,0007.03
2022-09-12 07:30:00,,0830.0,4.99,0.00,29.1,27.5,00.0,37.9,30.9,14.4,0001.3,0007.37,0009.84,0007.10
2022-09-12 07:31:00,,0830.0,5.00,0.00,29.1,27.6,00.0,37.9,30.9,14.1,0000.8,0007.39,0010.02,0007.12
2022-09-12 07:32:00,,0829.9,4.99,0.00,29.1,27.5,00.0,37.9,30.9,13.9,0000.8,0007.36,0010.46,0007.12
2022-09-12 07:33:00,,0829.9,5.00,0.00,29.1,27.5,00.0,37.9,30.8,13.9,0001.0,0007.37,0010.70,0007.12
2022-09-12 07:34:00,,0829.9,5.00,0.00,29.1,27.4,00.0,37.9,30.8,14.0,0001.1,0007.38,0010.64,0007.11
2022-09-12 07:35:00,,0829.9,5.00,0.00,29.1,27.5,00.0,37.9,30.8,13.9,0000.9,0007.36,0010.70,0007.08
2022-09-12 07:36:00,,0829.9,5.01,0.00,29.1,27.5,00.0,37.9,30.8,14.0,0000.9,0007.34,0010.71,0007.04
2022-09-12 07:37:00,,0829.9,4.99,0.00,29.1,27.5,00.0,37.9,30.8,14.0,0001.0,0007.33,0010.70,0007.02
2022-09-12 07:38:00,,0829.9,5.00,0.00,29.1,27.5,00.0,37.9,30.8,14.1,0001.6,0007.31,0010.62,0007.01
2022-09-12 07:39:00,,0829.9,5.00,0.00,29.0,27.5,00.0,37.9,30.8,14.1,0001.5,0007.32,0010.68,0007.00
2022-09-12 07:40:00,,0829.9,5.00,0.00,29.1,27.5,00.0,37.9,30.8,14.2,0001.6,0007.34,0010.74,0007.00
2022-09-12 07:41:00,,0830.0,5.00,0.00,29.0,27.5,00.0,37.9,30.8,14.4,0001.7,0007.35,0010.68,0007.02
2022-09-12 07:42:00,,0829.9,4.99,0.00,29.0,27.5,00.0,37.9,30.8,14.0,0001.7,0007.35,0010.55,0007.05
2022-09-12 07:43:00,,0829.9,5.01,0.00,29.0,27.4,00.0,37.8,30.8,13.7,0001.7,0007.37,0010.45,0007.07
2022-09-12 07:44:00,,0829.9,5.01,0.00,29.0,27.4,00.0,37.8,30.7,14.1,0001.5,0007.38,0010.68,0007.08
2022-09-12 07:45:00,,0829.9,5.00,0.00,29.0,27.4,00.0,37.8,30.7,14.1,0001.4,0007.38,0010.66,0007.09
2022-09-12 07:46:00,,0829.9,4.98,0.00,29.0,27.4,00.0,37.8,30.7,14.0,0001.1,0007.37,0010.59,0007.10
2022-09-12 07:47:00,,0829.9,4.99,0.00,29.0,27.4,00.0,37.8,30.7,13.9,0001.1,0007.38,0010.56,0007.12
2022-09-12 07:48:00,,0829.9,5.00,0.00,29.0,27.4,00.0,37.8,30.7,13.8,0001.0,0007.37,0010.60,0007.12
2022-09-12 07:49:00,,0829.8,5.00,0.00,29.0,27.4,00.0,37.8,30.7,13.8,0000.8,0007.36,0010.62,0007.12
2022-09-12 07:50:00,,0829.9,5.00,0.00,29.0,27.5,00.0,37.8,30.8,13.8,0000.9,0007.36,0010.58,0007.13
2022-09-12 07:51:00,,0829.9,5.00,0.00,29.0,27.5,00.0,37.8,30.8,13.8,0001.3,0007.34,0010.51,0007.13
2022-09-12 07:52:00,,0829.9,5.00,0.00,29.0,27.4,00.0,37.8,30.8,13.7,0001.4,0007.33,0010.53,0007.12
2022-09-12 07:53:00,,0829.9,5.00,0.00,29.0,27.4,00.0,37.8,30.8,13.7,0001.6,0007.32,0010.59,0007.10
2022-09-12 07:54:00,,0830.0,5.00,0.00,29.0,27.4,00.0,37.8,30.8,13.7,0001.7,0007.31,0010.30,0007.10
2022-09-12 07:55:00,,0829.9,4.99,0.00,29.0,27.5,00.0,37.8,30.8,13.8,0002.1,0007.34,0009.76,0007.13
2022-09-12 07:56:00,,0829.9,5.00,0.00,29.0,27.5,00.0,37.8,30.8,13.9,0002.0,0007.37,0009.80,0007.14
2022-09-12 07:57:00,,0829.9,5.00,0.00,29.0,27.5,00.0,37.8,30.8,13.7,0002.4,0007.37,0009.83,0007.15
2022-09-12 07:58:00,,0829.9,5.01,0.00,29.0,27.4,00.0,37.8,30.8,13.8,0002.8,0007.36,0009.99,0007.12
2022-09-12 07:59:00,,0829.9,4.98,0.00,29.0,27.3,00.0,37.8,30.7,13.7,0002.9,0007.37,0010.57,0007.12
